TimeCDT,TemperatureF,Dew PointF,Humidity,Sea Level PressureIn,VisibilityMPH,Wind Direction,Wind SpeedMPH,Gust SpeedMPH,PrecipitationIn,Events,Conditions,WindDirDegrees,DateUTC
12:58 AM,57.0,50.0,77,30.12,10.0,Calm,Calm,-,N/A,,Clear,0,2012-10-23 05:58:00
1:58 AM,59.0,52.0,78,30.10,10.0,Calm,Calm,-,N/A,,Clear,0,2012-10-23 06:58:00
2:58 AM,57.9,51.1,78,30.09,10.0,Calm,Calm,-,N/A,,Clear,0,2012-10-23 07:58:00
3:58 AM,55.9,50.0,80,30.09,10.0,East,3.5,-,N/A,,Clear,90,2012-10-23 08:58:00
4:58 AM,55.0,48.9,80,30.10,10.0,Calm,Calm,-,N/A,,Clear,0,2012-10-23 09:58:00
5:58 AM,54.0,50.0,86,30.12,10.0,Calm,Calm,-,N/A,,Clear,0,2012-10-23 10:58:00
6:58 AM,53.1,50.0,89,30.13,10.0,Calm,Calm,-,N/A,,Clear,0,2012-10-23 11:58:00
7:58 AM,57.9,53.1,84,30.15,10.0,East,4.6,-,N/A,,Clear,80,2012-10-23 12:58:00
8:58 AM,64.0,55.9,75,30.17,10.0,East,3.5,-,N/A,,Clear,90,2012-10-23 13:58:00
9:58 AM,68.0,57.0,68,30.17,10.0,East,5.8,-,N/A,,Clear,100,2012-10-23 14:58:00
10:58 AM,73.0,59.0,61,30.16,10.0,Variable,3.5,-,N/A,,Clear,0,2012-10-23 15:58:00
11:58 AM,75.0,55.0,50,30.14,10.0,SSE,4.6,-,N/A,,Clear,150,2012-10-23 16:58:00
12:58 PM,77.0,57.0,50,30.10,10.0,Calm,Calm,-,N/A,,Clear,0,2012-10-23 17:58:00
1:58 PM,80.1,57.9,47,30.08,10.0,NNE,4.6,-,N/A,,Clear,20,2012-10-23 18:58:00
2:58 PM,79.0,55.9,45,30.06,10.0,Calm,Calm,-,N/A,,Partly Cloudy,0,2012-10-23 19:58:00
3:58 PM,80.1,53.1,39,30.06,10.0,East,4.6,-,N/A,,Clear,80,2012-10-23 20:58:00
4:58 PM,79.0,55.0,44,30.06,10.0,Variable,3.5,-,N/A,,Clear,0,2012-10-23 21:58:00
5:58 PM,71.1,60.1,68,30.07,10.0,Calm,Calm,-,N/A,,Clear,0,2012-10-23 22:58:00
6:58 PM,64.9,60.1,84,30.09,10.0,Calm,Calm,-,N/A,,Clear,0,2012-10-23 23:58:00
7:58 PM,64.0,59.0,84,30.10,10.0,Calm,Calm,-,N/A,,Clear,0,2012-10-24 00:58:00
8:58 PM,62.1,57.9,86,30.11,10.0,Calm,Calm,-,N/A,,Clear,0,2012-10-24 01:58:00
9:58 PM,62.1,57.9,86,30.11,10.0,Calm,Calm,-,N/A,,Clear,0,2012-10-24 02:58:00
10:58 PM,61.0,57.0,87,30.10,10.0,Calm,Calm,-,N/A,,Clear,0,2012-10-24 03:58:00
11:58 PM,59.0,55.9,90,30.09,10.0,Calm,Calm,-,N/A,,Clear,0,2012-10-24 04:58:00